Volver al catálogo

ATLAS 5 CENTAUR R/B

ActivoHEO
NORAD 40888·ROCKET BODY·🇺🇸 United States

Lanzado Sep 2, 2015 desde Cape Canaveral Space Force Station

Loading…

Próximos Pases (próximas 24 horas)

TLE

ActualizadoSource: Space-Track

Época: Sep 7, 2026, 06:52 UTC

1 40888U 15044B   26250.28666593 -.00000110  00000-0  00000-0 0  9995
2 40888  19.2302 317.8623 6071685  72.3156 342.3753  2.08775769 84026

Sigue ATLAS 5 CENTAUR R/B en tiempo real con AllMySat

Download on the App Store